| time (UTC) | temp C | wind direction | speed KPH | gust KPH | rain 1hr cm | rain 24hr cm | rain mn cm | humidity % | barometer mb |
| 20260506124531 | 12 | 297 | 9.7 | 14.5 | 0.00 | 0.00 | 0.00 | 87 | 1019.7 |
| 20260506123030 | 12 | 279 | 6.4 | 12.9 | 0.00 | 0.00 | 0.00 | 86 | 1019.7 |
| 20260506121530 | 11 | 302 | 9.7 | 16.1 | 0.00 | 0.00 | 0.00 | 86 | 1019.6 |
| 20260506120034 | 11 | 321 | 8.0 | 14.5 | 0.00 | 0.00 | 0.00 | 87 | 1019.5 |
| 20260506114533 | 11 | 314 | 11.3 | 16.1 | 0.00 | 0.00 | 0.00 | 87 | 1019.5 |
| 20260506113032 | 11 | 300 | 9.7 | 14.5 | 0.00 | 0.00 | 0.00 | 87 | 1019.4 |
| 20260506111531 | 12 | 298 | 9.7 | 17.7 | 0.00 | 0.00 | 0.00 | 87 | 1019.3 |
| 20260506110030 | 12 | 315 | 9.7 | 17.7 | 0.00 | 0.00 | 0.00 | 87 | 1019.1 |
| 20260506104533 | 11 | 292 | 11.3 | 19.3 | 0.00 | 0.00 | 0.00 | 87 | 1019.1 |
| 20260506103032 | 11 | 292 | 8.0 | 17.7 | 0.00 | 0.00 | 0.00 | 87 | 1019.0 |
| 20260506101532 | 11 | 300 | 8.0 | 14.5 | 0.00 | 0.00 | 0.00 | 88 | 1018.8 |
| 20260506100031 | 12 | 260 | 6.4 | 12.9 | 0.00 | 0.00 | 0.00 | 88 | 1018.9 |
| 20260506094531 | 11 | 290 | 6.4 | 14.5 | 0.00 | 0.03 | 0.00 | 87 | 1019.0 |
| 20260506093037 | 11 | 282 | 8.0 | 16.1 | 0.00 | 0.03 | 0.00 | 87 | 1018.9 |
| 20260506091532 | 12 | 296 | 8.0 | 14.5 | 0.00 | 0.03 | 0.00 | 87 | 1018.9 |
| 20260506090032 | 12 | 279 | 8.0 | 14.5 | 0.00 | 0.03 | 0.00 | 87 | 1019.0 |
| 20260506084536 | 12 | 286 | 6.4 | 17.7 | 0.00 | 0.10 | 0.00 | 87 | 1018.9 |
| 20260506083037 | 12 | 360 | 11.3 | 19.3 | 0.00 | 0.10 | 0.00 | 87 | 1019.1 |
| 20260506081533 | 12 | 283 | 12.9 | 19.3 | 0.00 | 0.10 | 0.00 | 87 | 1019.2 |
| 20260506073032 | 12 | 294 | 8.0 | 14.5 | 0.00 | 0.18 | 0.00 | 87 | 1018.9 |
| 20260506071531 | 12 | 304 | 9.7 | 17.7 | 0.00 | 0.18 | 0.00 | 87 | 1018.8 |
| 20260506061532 | 12 | 298 | 12.9 | 20.9 | 0.00 | 0.20 | 0.18 | 87 | 1018.2 |
| 20260506044541 | 12 | 360 | 11.3 | 17.7 | 0.00 | 0.28 | 0.18 | 87 | 1017.9 |
| 20260506043032 | 12 | 282 | 11.3 | 17.7 | 0.00 | 0.28 | 0.18 | 87 | 1017.9 |
| 20260506041546 | 12 | 360 | 11.3 | 19.3 | 0.00 | 0.28 | 0.18 | 87 | 1017.7 |
| 20260506040040 | 12 | 281 | 12.9 | 20.9 | 0.00 | 0.28 | 0.18 | 86 | 1017.2 |
| 20260506034533 | 12 | 360 | 12.9 | 22.5 | 0.00 | 0.28 | 0.18 | 86 | 1017.2 |
| 20260506033035 | 12 | 292 | 11.3 | 24.1 | 0.00 | 0.28 | 0.18 | 86 | 1017.0 |
| 20260506031533 | 12 | 266 | 12.9 | 22.5 | 0.00 | 0.28 | 0.18 | 86 | 1017.0 |
| 20260506030031 | 12 | 239 | 14.5 | 22.5 | 0.00 | 0.28 | 0.18 | 86 | 1016.8 |
| 20260506024536 | 13 | 297 | 12.9 | 24.1 | 0.00 | 0.28 | 0.18 | 85 | 1016.7 |
| 20260506023036 | 13 | 273 | 12.9 | 24.1 | 0.00 | 0.28 | 0.18 | 85 | 1016.4 |
| 20260506021544 | 13 | 258 | 17.7 | 27.4 | 0.00 | 0.28 | 0.18 | 84 | 1016.3 |
| 20260506020034 | 13 | 250 | 16.1 | 29.0 | 0.00 | 0.28 | 0.18 | 83 | 1016.3 |
| 20260506014532 | 13 | 293 | 17.7 | 25.7 | 0.00 | 0.28 | 0.18 | 83 | 1016.4 |
| 20260506013037 | 13 | 292 | 14.5 | 24.1 | 0.00 | 0.28 | 0.18 | 83 | 1016.5 |
| 20260506011558 | 14 | 279 | 12.9 | 27.4 | 0.00 | 0.28 | 0.18 | 82 | 1016.5 |
| 20260506010036 | 14 | 360 | 16.1 | 29.0 | 0.00 | 0.28 | 0.18 | 81 | 1016.3 |
| 20260506004542 | 14 | 360 | 17.7 | 29.0 | 0.00 | 0.28 | 0.18 | 79 | 1016.5 |
| 20260506003034 | 14 | 275 | 20.9 | 29.0 | 0.00 | 0.28 | 0.18 | 80 | 1016.1 |
| 20260506001532 | 14 | 273 | 16.1 | 29.0 | 0.00 | 0.28 | 0.18 | 81 | 1015.9 |
| 20260506000032 | 14 | 281 | 16.1 | 30.6 | 0.00 | 0.28 | 0.18 | 80 | 1015.9 |
| 20260505234534 | 14 | 265 | 16.1 | 25.7 | 0.00 | 0.28 | 0.18 | 79 | 1016.0 |
| 20260505233034 | 15 | 271 | 17.7 | 30.6 | 0.00 | 0.28 | 0.18 | 77 | 1016.2 |
| 20260505231538 | 15 | 244 | 20.9 | 30.6 | 0.00 | 0.28 | 0.18 | 76 | 1016.1 |
| 20260505230034 | 15 | 263 | 17.7 | 25.7 | 0.00 | 0.28 | 0.18 | 77 | 1016.1 |
| 20260505224529 | 15 | 279 | 16.1 | 32.2 | 0.00 | 0.28 | 0.18 | 77 | 1016.1 |
| 20260505223035 | 15 | 290 | 17.7 | 29.0 | 0.00 | 0.28 | 0.18 | 76 | 1016.2 |
| 20260505221534 | 15 | 360 | 19.3 | 27.4 | 0.00 | 0.28 | 0.18 | 76 | 1016.1 |
| 20260505220048 | 15 | 360 | 19.3 | 27.4 | 0.00 | 0.28 | 0.18 | 77 | 1016.3 |
| 20260505214533 | 15 | 267 | 19.3 | 29.0 | 0.00 | 0.28 | 0.18 | 77 | 1016.3 |
| 20260505213032 | 15 | 342 | 17.7 | 27.4 | 0.00 | 0.28 | 0.18 | 77 | 1016.5 |
| 20260505211537 | 15 | 315 | 17.7 | 27.4 | 0.00 | 0.28 | 0.18 | 79 | 1016.5 |
| 20260505210039 | 15 | 360 | 19.3 | 27.4 | 0.00 | 0.28 | 0.18 | 77 | 1016.4 |
| 20260505204531 | 15 | 360 | 16.1 | 30.6 | 0.00 | 0.28 | 0.18 | 77 | 1016.4 |
| 20260505203033 | 15 | 299 | 17.7 | 27.4 | 0.00 | 0.28 | 0.18 | 77 | 1016.5 |
| 20260505201538 | 15 | 360 | 24.1 | 33.8 | 0.00 | 0.28 | 0.18 | 77 | 1016.5 |
| 20260505200035 | 15 | 277 | 19.3 | 35.4 | 0.00 | 0.28 | 0.18 | 76 | 1016.6 |
| 20260505194532 | 14 | 304 | 22.5 | 32.2 | 0.00 | 0.28 | 0.18 | 78 | 1016.5 |
| 20260505193040 | 14 | 273 | 19.3 | 29.0 | 0.00 | 0.28 | 0.18 | 80 | 1016.4 |
| 20260505191534 | 13 | 276 | 16.1 | 24.1 | 0.00 | 0.28 | 0.18 | 82 | 1016.5 |
| 20260505190036 | 13 | 360 | 19.3 | 27.4 | 0.00 | 0.28 | 0.18 | 83 | 1016.4 |
| 20260505184532 | 13 | 360 | 17.7 | 32.2 | 0.00 | 0.28 | 0.18 | 84 | 1016.2 |
| 20260505183043 | 13 | 275 | 19.3 | 29.0 | 0.00 | 0.28 | 0.18 | 83 | 1016.3 |
| 20260505181532 | 13 | 360 | 20.9 | 32.2 | 0.00 | 0.28 | 0.18 | 84 | 1016.2 |
| 20260505180033 | 13 | 287 | 14.5 | 27.4 | 0.00 | 0.28 | 0.18 | 86 | 1015.9 |
| 20260505174536 | 12 | 282 | 20.9 | 32.2 | 0.00 | 0.28 | 0.18 | 88 | 1015.6 |
| 20260505173032 | 12 | 286 | 19.3 | 29.0 | 0.00 | 0.28 | 0.18 | 89 | 1015.7 |
| 20260505171533 | 12 | 279 | 19.3 | 29.0 | 0.00 | 0.28 | 0.18 | 90 | 1015.7 |
| 20260505170032 | 12 | 304 | 17.7 | 27.4 | 0.00 | 0.28 | 0.18 | 90 | 1015.8 |
| 20260505164551 | 12 | 315 | 14.5 | 25.7 | 0.00 | 0.28 | 0.18 | 91 | 1015.8 |
| 20260505163036 | 11 | 291 | 17.7 | 24.1 | 0.00 | 0.28 | 0.18 | 91 | 1015.7 |
| 20260505161542 | 11 | 311 | 16.1 | 22.5 | 0.00 | 0.28 | 0.18 | 90 | 1015.7 |
| 20260505153032 | 11 | 269 | 12.9 | 24.1 | 0.00 | 0.28 | 0.18 | 90 | 1015.4 |
| 20260505151531 | 11 | 304 | 19.3 | 27.4 | 0.00 | 0.28 | 0.18 | 90 | 1015.3 |